Weather History for Palma de Mallorca, Spain

Change the Weather History Date:

Thursday, July 3, 2014

  Actual Average Record
Temperature  
Mean Temperature 80 °F -  
Max Temperature 91 °F 85 °F 91 °F (1998)
Min Temperature 70 °F 64 °F 59 °F (1996)
Cooling Degree Days 16    
Growing Degree Days 30 (Base 50)    
Moisture  
Dew Point 66 °F    
Average Humidity 62    
Maximum Humidity 83    
Minimum Humidity 32    
Precipitation  
Precipitation 0.00 in 0.01 in - ()
Sea Level Pressure  
Sea Level Pressure 29.98 in    
Wind  
Wind Speed 10 mph ()    
Max Wind Speed 24 mph    
Max Gust Speed 32 mph    
Visibility 6.9 miles    
Events      
Averages and records for this station are not official NWS values.
T = Trace of Precipitation, MM = Missing Value Source: Averaged Metar Reports

Daily Weather History Graph

Daily Weather History Graph

Search for Another Location

Airport:

Trip Planner

Search our weather history database for the weather conditions in past years. The results will help you decide how hot, cold, wet, or windy it might be!

Date:

Astronomy

Jul. 03, 2014 Rise Set
Actual Time 6:26 AM CEST 9:20 PM CEST
Civil Twilight 5:53 AM CEST 9:52 PM CEST
Nautical Twilight 5:13 AM CEST 10:33 PM CEST
Astronomical Twilight 4:26 AM CEST 11:19 PM CEST
Moon 12:09 PM CEST (7/3) 12:07 AM CEST (7/3)
Length of Visible Light 15h 58m
Length of Day
14h 53m
Waxing Crescent, 30% of the Moon is Illuminated
Jul 3
Waxing Crescent
Jul 5
First Quarter
Jul 12
Full
Jul 19
Last Quarter
Jul 27
New

Hourly Weather History & Observations

Time (CEST) Temp. Heat Index Dew Point Humidity Pressure Visibility Wind Dir Wind Speed Gust Speed Precip Events Conditions
12:00 AM 75 °F - 67 °F 71% 30.04 in - ENE 6.9 mph - -  
12:00 AM 75.2 °F - 66.2 °F 73% 30.04 in 6.2 mi ENE 5.8 mph - N/A   Partly Cloudy
12:30 AM 75.2 °F - 66.2 °F 73% 30.04 in 6.2 mi NE 3.5 mph - N/A   Partly Cloudy
1:00 AM 73 °F - 65 °F 70% 30.05 in - ENE 3.5 mph - -  
1:00 AM 73.4 °F - 64.4 °F 73% 30.04 in 6.2 mi ENE 3.5 mph - N/A   Partly Cloudy
1:30 AM 73.4 °F - 64.4 °F 73% 30.04 in 6.2 mi ENE 4.6 mph - N/A   Partly Cloudy
2:00 AM 72 °F - 65 °F 72% 30.06 in 7 mi ENE 2.3 mph - -   Scattered Clouds
2:00 AM 73.4 °F - 64.4 °F 73% 30.06 in 6.2 mi East 2.3 mph - N/A   Partly Cloudy
2:30 AM 71.6 °F - 64.4 °F 78% 30.06 in 6.2 mi ENE 3.5 mph - N/A   Partly Cloudy
3:00 AM 70 °F - 65 °F 78% 30.04 in - ENE 8.1 mph - -  
3:00 AM 69.8 °F - 64.4 °F 83% 30.04 in 6.2 mi ENE 8.1 mph - N/A   Partly Cloudy
3:30 AM 73.4 °F - 66.2 °F 78% 30.01 in 6.2 mi NE 11.5 mph - N/A   Partly Cloudy
4:00 AM 73 °F - 65 °F 71% 30.02 in - NE 13.8 mph - -  
4:00 AM 73.4 °F - 64.4 °F 73% 30.01 in 6.2 mi NE 12.7 mph - N/A   Partly Cloudy
4:30 AM 73.4 °F - 62.6 °F 69% 29.98 in 6.2 mi NE 11.5 mph - N/A   Partly Cloudy
5:00 AM 74 °F - 64 °F 62% 29.99 in 7 mi NE 10.4 mph - -   Partly Cloudy
5:00 AM 73.4 °F - 62.6 °F 69% 29.98 in 6.2 mi NE 9.2 mph - N/A   Partly Cloudy
5:30 AM 75.2 °F - 64.4 °F 69% 30.01 in 6.2 mi NE 15.0 mph - N/A   Partly Cloudy
6:00 AM 74 °F - 66 °F 68% 30.00 in - ENE 15.0 mph - -  
6:00 AM 73.4 °F - 64.4 °F 73% 29.98 in 6.2 mi ENE 15.0 mph - N/A   Partly Cloudy
6:30 AM 75.2 °F - 66.2 °F 73% 30.01 in 6.2 mi ENE 13.8 mph - N/A   Partly Cloudy
7:00 AM 74 °F - 67 °F 72% 30.01 in - ENE 10.4 mph - -  
7:00 AM 75.2 °F - 66.2 °F 73% 30.01 in 6.2 mi ENE 11.5 mph - N/A   Partly Cloudy
7:30 AM 75.2 °F - 66.2 °F 73% 30.01 in 6.2 mi ENE 9.2 mph - N/A   Partly Cloudy
8:00 AM 75 °F - 68 °F 72% 30.03 in 12 mi East 10.4 mph - -   Mostly Cloudy
8:00 AM 75.2 °F - 66.2 °F 73% 30.01 in - East 10.4 mph - N/A   Clear
8:30 AM 75.2 °F - 68.0 °F 78% 30.04 in - ENE 15.0 mph - N/A   Clear
9:00 AM 77 °F - 69 °F 70% 30.04 in - ENE 12.7 mph - -  
9:00 AM 77.0 °F - 68.0 °F 74% 30.04 in 6.2 mi ENE 11.5 mph - N/A   Partly Cloudy
9:30 AM 78.8 °F - 68.0 °F 69% 30.04 in 6.2 mi ENE 15.0 mph - N/A   Partly Cloudy
10:00 AM 80 °F - 68 °F 59% 30.04 in - ENE 18.4 mph - -  
10:00 AM 78.8 °F - 66.2 °F 65% 30.04 in 6.2 mi ENE 18.4 mph - N/A   Partly Cloudy
10:30 AM 80.6 °F 82.7 °F 66.2 °F 61% 30.04 in 6.2 mi ENE 18.4 mph - N/A   Partly Cloudy
11:00 AM 85 °F - 68 °F 47% 30.04 in 11 mi ENE 17.3 mph - -   Scattered Clouds
11:00 AM 84.2 °F 86.6 °F 66.2 °F 55% 30.04 in 6.2 mi ENE 18.4 mph - N/A   Partly Cloudy
11:30 AM 86.0 °F 88.2 °F 66.2 °F 51% 30.01 in 6.2 mi East 16.1 mph 31.1 mph N/A   Partly Cloudy
12:00 PM 87 °F - 63 °F 35% 30.02 in - ENE 17.3 mph - -  
12:00 PM 87.8 °F 90.4 °F 66.2 °F 49% 30.01 in 6.2 mi East 17.3 mph - N/A   Partly Cloudy
12:30 PM 89.6 °F 88.1 °F 57.2 °F 33% 30.01 in 6.2 mi East 18.4 mph 32.2 mph N/A   Partly Cloudy
1:00 PM 90 °F - 64 °F 32% 29.98 in - ENE 18.4 mph - -  
1:00 PM 89.6 °F 91.1 °F 64.4 °F 43% 29.98 in 6.2 mi ENE 19.6 mph 32.2 mph N/A   Partly Cloudy
1:30 PM 89.6 °F 90.1 °F 62.6 °F 40% 29.95 in - ENE 19.6 mph 32.2 mph N/A   Clear
2:00 PM 91 °F - 65 °F 32% 29.94 in 16 mi NE 24.2 mph - -   Clear
2:00 PM 89.6 °F 90.1 °F 62.6 °F 40% 29.95 in - NE 23.0 mph - N/A   Clear
2:30 PM 89.6 °F 90.1 °F 62.6 °F 40% 29.95 in - ENE 23.0 mph - N/A   Clear
3:00 PM 90 °F - 65 °F 34% 29.94 in - ENE 20.7 mph - -  
3:00 PM 89.6 °F 90.1 °F 62.6 °F 40% 29.95 in - ENE 20.7 mph - N/A   Clear
3:30 PM 87.8 °F 90.4 °F 66.2 °F 49% 29.95 in - ENE 18.4 mph - N/A   Clear
4:00 PM 88 °F - 68 °F 42% 29.94 in - NE 17.3 mph - -  
4:30 PM 87.8 °F 91.4 °F 68.0 °F 52% 29.92 in 6.2 mi East 13.8 mph - N/A   Partly Cloudy
5:00 PM 88 °F - 65 °F 36% 29.92 in 12 mi East 17.3 mph - -   Scattered Clouds
5:00 PM 87.8 °F 89.4 °F 64.4 °F 46% 29.92 in 6.2 mi ESE 10.4 mph - N/A   Partly Cloudy
5:30 PM 87.8 °F 89.4 °F 64.4 °F 46% 29.92 in 6.2 mi East 12.7 mph - N/A   Partly Cloudy
6:00 PM 87 °F - 66 °F 40% 29.90 in - East 13.8 mph - -  
6:00 PM 87.8 °F 90.4 °F 66.2 °F 49% 29.89 in 6.2 mi East 10.4 mph - N/A   Partly Cloudy
6:30 PM 86.0 °F 88.2 °F 66.2 °F 51% 29.89 in 6.2 mi East 8.1 mph - N/A   Scattered Clouds
7:00 PM 85 °F - 68 °F 48% 29.90 in - ESE 10.4 mph - -  
7:00 PM 84.2 °F 87.3 °F 68.0 °F 58% 29.89 in 6.2 mi SE 9.2 mph - N/A   Scattered Clouds
7:30 PM 82.4 °F 85.4 °F 68.0 °F 62% 29.89 in 6.2 mi SE 8.1 mph - N/A   Scattered Clouds
8:00 PM 83 °F - 68 °F 52% 29.90 in 12 mi SE 9.2 mph - -   Scattered Clouds
8:00 PM 82.4 °F 85.4 °F 68.0 °F 62% 29.89 in 6.2 mi SE 5.8 mph - N/A   Partly Cloudy
8:30 PM 80.6 °F 83.2 °F 68.0 °F 65% 29.89 in 6.2 mi SSE 8.1 mph - N/A   Partly Cloudy
9:00 PM 81 °F - 70 °F 62% 29.91 in - South 8.1 mph - -  
9:00 PM 80.6 °F 83.2 °F 68.0 °F 65% 29.89 in 6.2 mi SSE 5.8 mph - N/A   Scattered Clouds
9:30 PM 77.0 °F - 69.8 °F 78% 29.92 in 6.2 mi South 8.1 mph - N/A   Scattered Clouds
10:00 PM 77 °F - 72 °F 79% 29.93 in - SSW 11.5 mph - -  
10:00 PM 77.0 °F - 69.8 °F 78% 29.92 in 6.2 mi SSW 10.4 mph - N/A   Scattered Clouds
10:30 PM 77.0 °F - 69.8 °F 78% 29.92 in 6.2 mi SW 8.1 mph - N/A   Scattered Clouds
11:00 PM 77 °F - 72 °F 79% 29.93 in 7 mi WSW 12.7 mph - -   Scattered Clouds
11:00 PM 77.0 °F - 71.6 °F 83% 29.92 in 6.2 mi SW 9.2 mph - N/A   Scattered Clouds
11:30 PM 77.0 °F - 69.8 °F 78% 29.92 in 6.2 mi WSW 10.4 mph - N/A   Scattered Clouds